Clear Lake, IA

1:55 AM CST on February 23, 2017 (GMT -0600)
Mason City Municipal

Weather History for KMCW - April, 2012

Change the Weather History Date:

Wednesday, April 25, 2012

  Actual Average Record
Temperature  
Mean Temperature 67 °F 51 °F  
Max Temperature 82 °F 63 °F 89 °F (1949)
Min Temperature 52 °F 39 °F 18 °F (1934)
Degree Days  
Heating Degree Days 0 14  
Month to date heating degree days 381 489  
Since 1 July heating degree days 5905 7334  
Cooling Degree Days 2 0  
Month to date cooling degree days 2 0  
Year to date cooling degree days 13 0  
Growing Degree Days 18 (Base 50)    
Moisture  
Dew Point 48 °F    
Average Humidity 59    
Maximum Humidity 83    
Minimum Humidity 34    
Precipitation  
Precipitation 0.00 in 0.15 in 1.48 in (1994)
Month to date precipitation 3.22 3.06  
Year to date precipitation 7.74 7.11  
Snow  
Snow 0.00 in 0.10 in - ()
Month to date snowfall 0.0 2.6  
Since 1 July snowfall 18.8 41.1  
Snow Depth 0.00 in    
Sea Level Pressure  
Sea Level Pressure 29.58 in    
Wind  
Wind Speed 11 mph (ESE)    
Max Wind Speed 26 mph    
Max Gust Speed 32 mph    
Visibility 10 miles    
Events      
T = Trace of Precipitation, MM = Missing Value Source: NWS Daily Summary

Daily Weather History Graph

Daily Weather History Graph

Search for Another Location

Airport or City:

Trip Planner

Search our weather history database for the weather conditions in past years. The results will help you decide how hot, cold, wet, or windy it might be!

Date:

Astronomy

Apr. 25, 2012 Rise Set
Actual Time 6:14 AM CDT 8:08 PM CDT
Civil Twilight 5:44 AM CDT 8:39 PM CDT
Nautical Twilight 5:06 AM CDT 9:16 PM CDT
Astronomical Twilight 4:26 AM CDT 9:57 PM CDT
Moon 8:56 AM CDT (4/25) No Moon Set
Length of Visible Light 14h 54m
Length of Day
13h 53m
Waxing Crescent, 17% of the Moon is Illuminated
Apr 25
Waxing Crescent
Apr 29
First Quarter
May 5
Full
May 12
Last Quarter
May 20
New

Hourly Weather History & Observations

Time (CDT) Temp. Dew Point Humidity Pressure Visibility Wind Dir Wind Speed Gust Speed Precip Events Conditions
12:53 AM 57.0 °F 45.0 °F 64% 29.59 in 10.0 mi SSE 12.7 mph - N/A   Clear
1:53 AM 55.9 °F 45.0 °F 67% 29.56 in 10.0 mi SE 10.4 mph - N/A   Clear
2:53 AM 55.0 °F 44.1 °F 67% 29.54 in 10.0 mi SE 9.2 mph - N/A   Clear
3:53 AM 53.1 °F 44.1 °F 71% 29.53 in 10.0 mi SSE 9.2 mph - N/A   Clear
4:53 AM 54.0 °F 42.1 °F 64% 29.57 in 10.0 mi East 11.5 mph - N/A   Partly Cloudy
5:53 AM 55.0 °F 41.0 °F 59% 29.56 in 10.0 mi SE 15.0 mph - N/A   Partly Cloudy
6:53 AM 54.0 °F 42.1 °F 64% 29.57 in 9.0 mi ESE 9.2 mph - N/A   Scattered Clouds
7:53 AM 57.0 °F 45.0 °F 64% 29.59 in 10.0 mi SSE 12.7 mph - N/A   Clear
8:53 AM 57.9 °F 46.0 °F 65% 29.56 in 10.0 mi SE 12.7 mph - N/A   Clear
9:53 AM 63.0 °F 46.9 °F 56% 29.53 in 10.0 mi SE 18.4 mph 24.2 mph N/A   Partly Cloudy
10:53 AM 66.9 °F 48.9 °F 52% 29.52 in 10.0 mi SSE 20.7 mph 27.6 mph N/A   Clear
11:53 AM 69.1 °F 50.0 °F 51% 29.52 in 10.0 mi SSE 19.6 mph - N/A   Clear
12:53 PM 71.1 °F 52.0 °F 51% 29.54 in 10.0 mi South 10.4 mph - N/A   Clear
1:53 PM 75.2 °F 53.6 °F 47% 29.56 in 10.0 mi SE 9.2 mph - N/A   Clear
2:53 PM 79.0 °F 55.0 °F 44% 29.53 in 10.0 mi Variable 4.6 mph - N/A   Clear
3:53 PM 82.0 °F 52.0 °F 35% 29.52 in 10.0 mi Calm Calm - N/A   Clear
4:53 PM 81.0 °F 51.1 °F 35% 29.52 in 10.0 mi NW 10.4 mph - N/A   Clear
5:53 PM 79.0 °F 50.0 °F 36% 29.53 in 10.0 mi NNW 16.1 mph 19.6 mph N/A   Partly Cloudy
6:53 PM 78.1 °F 48.9 °F 36% 29.56 in 10.0 mi NW 25.3 mph 32.2 mph N/A   Clear
7:53 PM 70.0 °F 52.0 °F 53% 29.60 in 10.0 mi North 16.1 mph - N/A   Clear
8:53 PM 62.1 °F 52.0 °F 70% 29.66 in 10.0 mi North 9.2 mph - N/A   Clear
9:53 PM 59.0 °F 52.0 °F 78% 29.70 in 10.0 mi NNW 8.1 mph - N/A   Clear
10:53 PM 55.9 °F 50.0 °F 80% 29.72 in 10.0 mi NNW 5.8 mph - N/A   Clear
11:53 PM 53.1 °F 48.9 °F 86% 29.73 in 9.0 mi NW 4.6 mph - N/A   Clear